timestamp,wind_dir_avg,wind_spd_avg,wind_spd_max_dir,wind_spd_gust,battery_voltage,lat,long
2023-09-16 00:04:01+00:00,237.0,5.91,245.0,7.4,12.41,47.59359,-54.27349
2023-09-16 00:14:00+00:00,236.0,6.88,237.0,7.99,12.41,47.59359,-54.27349
2023-09-16 00:24:00+00:00,237.0,7.22,239.0,7.87,12.41,47.59359,-54.27349
2023-09-16 00:34:00+00:00,234.0,6.18,241.0,7.55,12.41,47.59359,-54.27349
2023-09-16 00:44:00+00:00,235.0,5.45,248.0,7.17,12.41,47.59359,-54.27349
2023-09-16 00:54:00+00:00,228.0,6.37,239.0,7.71,12.41,47.59359,-54.27349
2023-09-16 01:04:00+00:00,240.0,6.58,241.0,7.35,12.41,47.59359,-54.27349
2023-09-16 01:14:01+00:00,242.0,6.32,244.0,6.91,12.41,47.59359,-54.27349
2023-09-16 01:24:01+00:00,249.0,6.86,250.0,7.4,12.41,47.59359,-54.27349
2023-09-16 01:34:01+00:00,262.0,6.84,263.0,7.17,12.41,47.59359,-54.27349
2023-09-16 01:44:01+00:00,315.0,0.01,272.0,0.0,12.41,47.59359,-54.27349
2023-09-16 01:54:01+00:00,315.0,0.01,272.0,0.0,12.41,47.59359,-54.27349
2023-09-16 02:04:01+00:00,315.0,0.01,272.0,0.0,12.41,47.59359,-54.27349
2023-09-16 02:14:00+00:00,315.0,0.01,272.0,0.0,12.41,47.59359,-54.27349
2023-09-16 02:24:00+00:00,315.0,0.01,272.0,0.0,12.41,47.59359,-54.27349
2023-09-16 02:34:00+00:00,315.0,0.01,272.0,0.0,12.41,47.59359,-54.27349
2023-09-16 02:44:00+00:00,315.0,0.01,272.0,0.0,12.41,47.59359,-54.27349
2023-09-16 02:54:00+00:00,315.0,0.01,272.0,0.0,12.41,47.59359,-54.27349
2023-09-16 03:04:00+00:00,315.0,0.01,272.0,0.0,12.41,47.59359,-54.27349
2023-09-16 03:14:01+00:00,315.0,0.01,272.0,0.0,12.41,47.59359,-54.27349
2023-09-16 03:24:01+00:00,315.0,0.01,272.0,0.0,12.41,47.59359,-54.27349
2023-09-16 03:34:01+00:00,315.0,0.01,272.0,0.0,12.41,47.59359,-54.27349
2023-09-16 03:44:01+00:00,315.0,0.01,272.0,0.0,12.41,47.59359,-54.27349
2023-09-16 03:54:01+00:00,315.0,0.01,272.0,0.0,12.41,47.59359,-54.27349
2023-09-16 04:04:01+00:00,315.0,0.01,272.0,0.0,12.41,47.59359,-54.27349
2023-09-16 04:14:00+00:00,315.0,0.01,272.0,0.0,12.41,47.59359,-54.27349
2023-09-16 04:24:00+00:00,210.0,1.26,225.0,1.97,12.41,47.59359,-54.27349
2023-09-16 04:34:00+00:00,233.0,2.1,253.0,5.03,12.41,47.59359,-54.27349
2023-09-16 04:44:00+00:00,253.0,5.54,253.0,6.07,12.41,47.59359,-54.27349
2023-09-16 04:54:00+00:00,252.0,3.64,256.0,5.64,12.41,47.59359,-54.27349
2023-09-16 05:04:00+00:00,220.0,1.53,237.0,2.47,12.41,47.59359,-54.27349
2023-09-16 05:14:01+00:00,303.0,0.32,302.0,0.39,12.41,47.59359,-54.27349
2023-09-16 05:24:01+00:00,23.0,0.99,22.0,1.1,12.41,47.59359,-54.27349
2023-09-16 05:34:01+00:00,11.0,1.27,12.0,1.39,12.41,47.59359,-54.27349
2023-09-16 05:44:01+00:00,19.0,0.82,18.0,0.95,12.41,47.59359,-54.27349
2023-09-16 05:54:01+00:00,35.0,0.7,32.0,0.87,12.41,47.59359,-54.27349
2023-09-16 06:04:01+00:00,69.0,0.75,79.0,0.97,12.41,47.59359,-54.27349
2023-09-16 06:14:00+00:00,93.0,0.85,91.0,1.18,12.33,47.59359,-54.27349
2023-09-16 06:24:00+00:00,76.0,1.9,83.0,4.35,12.33,47.59359,-54.27349
2023-09-16 06:34:00+00:00,78.0,4.75,80.0,6.16,12.33,47.59359,-54.27349
2023-09-16 06:44:00+00:00,74.0,3.63,78.0,5.67,12.33,47.59359,-54.27349
2023-09-16 06:54:00+00:00,79.0,4.14,83.0,6.14,12.33,47.59359,-54.27349
2023-09-16 07:04:00+00:00,59.0,1.64,60.0,2.04,12.33,47.59359,-54.27349
2023-09-16 07:14:01+00:00,43.0,1.34,47.0,1.53,12.33,47.59359,-54.27349
2023-09-16 07:24:01+00:00,66.0,4.26,73.0,5.92,12.33,47.59359,-54.27349
2023-09-16 07:34:01+00:00,61.0,3.58,69.0,4.69,12.33,47.59359,-54.27349
2023-09-16 07:44:01+00:00,40.0,1.92,48.0,2.51,12.33,47.59359,-54.27349
2023-09-16 07:54:01+00:00,52.0,3.91,64.0,5.51,12.33,47.59359,-54.27349
2023-09-16 08:04:01+00:00,56.0,5.74,60.0,6.61,12.33,47.59359,-54.27349
2023-09-16 08:14:01+00:00,59.0,4.2,64.0,5.49,12.25,47.59359,-54.27349
2023-09-16 08:24:01+00:00,60.0,5.16,64.0,6.3,12.25,47.59359,-54.27349
2023-09-16 08:34:01+00:00,51.0,4.24,65.0,6.19,12.25,47.59359,-54.27349
2023-09-16 08:44:01+00:00,57.0,5.28,61.0,6.53,12.25,47.59359,-54.27349
2023-09-16 08:54:01+00:00,58.0,5.31,65.0,6.97,12.25,47.59359,-54.27349
2023-09-16 09:04:01+00:00,53.0,5.07,61.0,6.82,12.25,47.59359,-54.27349
2023-09-16 09:14:00+00:00,47.0,4.58,58.0,6.47,12.25,47.59359,-54.27349
2023-09-16 09:24:00+00:00,55.0,4.16,65.0,5.72,12.25,47.59359,-54.27349
2023-09-16 09:34:00+00:00,58.0,3.91,65.0,4.9,12.25,47.59359,-54.27349
2023-09-16 09:44:00+00:00,61.0,3.55,66.0,4.53,12.25,47.59359,-54.27349
2023-09-16 09:54:00+00:00,58.0,3.82,65.0,5.63,12.25,47.59359,-54.27349
2023-09-16 10:04:00+00:00,54.0,4.11,53.0,4.5,12.25,47.59359,-54.27349
2023-09-16 10:14:00+00:00,54.0,5.02,53.0,5.36,12.25,47.59359,-54.27349
2023-09-16 10:24:00+00:00,52.0,4.38,53.0,4.94,12.25,47.59359,-54.27349
2023-09-16 10:34:00+00:00,50.0,4.55,48.0,5.05,12.25,47.59359,-54.27349
2023-09-16 10:44:00+00:00,42.0,5.55,42.0,6.33,12.25,47.59359,-54.27349
2023-09-16 10:54:00+00:00,44.0,5.52,44.0,6.18,12.25,47.59359,-54.27349
2023-09-16 11:04:00+00:00,49.0,5.99,46.0,6.46,12.25,47.59359,-54.27349
2023-09-16 11:14:00+00:00,72.0,5.93,71.0,6.98,12.57,47.59359,-54.27349
2023-09-16 11:24:00+00:00,79.0,4.55,71.0,6.59,12.57,47.59359,-54.27349
2023-09-16 11:34:00+00:00,71.0,4.91,73.0,5.76,12.57,47.59359,-54.27349
2023-09-16 11:44:00+00:00,68.0,4.3,73.0,4.83,12.57,47.59359,-54.27349
2023-09-16 11:54:00+00:00,50.0,5.23,51.0,5.85,12.57,47.59359,-54.27349
2023-09-16 12:04:00+00:00,47.0,5.01,53.0,5.77,12.57,47.59359,-54.27349
2023-09-16 12:14:00+00:00,45.0,5.22,38.0,5.73,12.65,47.59359,-54.27349
2023-09-16 12:24:00+00:00,48.0,5.34,51.0,6.03,12.65,47.59359,-54.27349
2023-09-16 12:34:00+00:00,40.0,4.81,36.0,5.38,12.65,47.59359,-54.27349
2023-09-16 12:44:00+00:00,39.0,4.99,40.0,5.55,12.65,47.59359,-54.27349
2023-09-16 12:54:00+00:00,38.0,5.05,44.0,5.53,12.65,47.59359,-54.27349
2023-09-16 13:04:00+00:00,33.0,5.59,35.0,5.87,12.65,47.59359,-54.27349
2023-09-16 13:14:00+00:00,31.0,5.79,33.0,6.11,13.29,47.59359,-54.27349
2023-09-16 13:24:00+00:00,32.0,5.26,30.0,5.84,13.29,47.59359,-54.27349
2023-09-16 13:34:00+00:00,38.0,4.47,34.0,5.3,13.29,47.59359,-54.27349
2023-09-16 13:44:00+00:00,40.0,4.06,40.0,4.31,13.29,47.59359,-54.27349
2023-09-16 13:54:00+00:00,39.0,4.21,36.0,4.6,13.29,47.59359,-54.27349
2023-09-16 14:04:00+00:00,39.0,4.84,38.0,5.19,13.29,47.59359,-54.27349
2023-09-16 14:14:01+00:00,51.0,4.82,55.0,5.41,13.29,47.59359,-54.27349
2023-09-16 14:24:01+00:00,47.0,4.4,47.0,4.81,13.29,47.59359,-54.27349
2023-09-16 14:34:01+00:00,50.0,4.34,50.0,4.85,13.29,47.59359,-54.27349
2023-09-16 14:44:01+00:00,51.0,4.76,56.0,5.38,13.29,47.59359,-54.27349
2023-09-16 14:54:01+00:00,57.0,4.32,52.0,5.01,13.29,47.59359,-54.27349
2023-09-16 15:04:01+00:00,72.0,3.25,76.0,4.11,13.29,47.59359,-54.27349
2023-09-16 15:14:00+00:00,76.0,2.42,75.0,3.19,13.05,47.59359,-54.27349
2023-09-16 15:24:00+00:00,62.0,2.42,62.0,3.11,13.05,47.59359,-54.27349
2023-09-16 15:34:00+00:00,77.0,2.21,59.0,3.81,13.05,47.59359,-54.27349
2023-09-16 15:44:00+00:00,71.0,2.28,59.0,2.97,13.05,47.59359,-54.27349
2023-09-16 15:54:00+00:00,64.0,2.92,61.0,3.21,13.05,47.59359,-54.27349
2023-09-16 16:04:00+00:00,52.0,2.3,52.0,2.56,13.05,47.59359,-54.27349
2023-09-16 16:14:01+00:00,52.0,2.36,50.0,2.57,13.6,47.59359,-54.27349
2023-09-16 16:24:01+00:00,60.0,2.01,67.0,2.51,13.6,47.59359,-54.27349
2023-09-16 16:34:01+00:00,72.0,1.62,75.0,2.45,13.6,47.59359,-54.27349
2023-09-16 16:44:01+00:00,48.0,1.49,55.0,2.08,13.6,47.59359,-54.27349
2023-09-16 16:54:01+00:00,50.0,1.84,78.0,3.53,13.6,47.59359,-54.27349
2023-09-16 17:04:01+00:00,50.0,1.75,53.0,2.01,13.6,47.59359,-54.27349
2023-09-16 17:14:00+00:00,61.0,2.2,62.0,2.72,13.68,47.59359,-54.27349
2023-09-16 17:24:00+00:00,93.0,1.83,98.0,3.69,13.68,47.59359,-54.27349
2023-09-16 17:34:00+00:00,45.0,2.94,49.0,3.9,13.68,47.59359,-54.27349
2023-09-16 17:44:00+00:00,57.0,1.24,52.0,1.92,13.68,47.59359,-54.27349
2023-09-16 17:54:00+00:00,22.0,1.27,11.0,1.71,13.68,47.59359,-54.27349
2023-09-16 18:04:00+00:00,168.0,5.52,168.0,6.19,13.68,47.59359,-54.27349
2023-09-16 18:14:00+00:00,172.0,4.48,178.0,4.9,13.84,47.59359,-54.27349
2023-09-16 18:24:00+00:00,180.0,3.73,178.0,4.55,13.84,47.59359,-54.27349
2023-09-16 18:34:00+00:00,169.0,4.16,170.0,4.35,13.84,47.59359,-54.27349
2023-09-16 18:44:00+00:00,183.0,3.75,188.0,4.33,13.84,47.59359,-54.27349
2023-09-16 18:54:00+00:00,179.0,3.65,180.0,3.95,13.84,47.59359,-54.27349
2023-09-16 19:04:00+00:00,224.0,3.48,240.0,4.6,13.84,47.59359,-54.27349
2023-09-16 19:14:00+00:00,180.0,3.31,185.0,4.76,13.68,47.59359,-54.27349
2023-09-16 19:24:00+00:00,175.0,4.76,176.0,4.9,13.68,47.59359,-54.27349
2023-09-16 19:34:00+00:00,158.0,4.24,158.0,4.49,13.68,47.59359,-54.27349
2023-09-16 19:44:00+00:00,167.0,4.65,170.0,6.07,13.68,47.59359,-54.27349
2023-09-16 19:54:00+00:00,166.0,3.75,171.0,3.94,13.68,47.59359,-54.27349
2023-09-16 20:04:00+00:00,176.0,3.57,181.0,4.0,13.68,47.59359,-54.27349
2023-09-16 20:14:00+00:00,170.0,2.8,173.0,3.34,13.37,47.59359,-54.27349
2023-09-16 20:24:00+00:00,163.0,2.58,168.0,3.2,13.37,47.59359,-54.27349
2023-09-16 20:34:00+00:00,163.0,2.69,162.0,3.26,13.37,47.59359,-54.27349
2023-09-16 20:44:00+00:00,162.0,5.64,165.0,6.22,13.37,47.59359,-54.27349
2023-09-16 20:54:00+00:00,164.0,7.8,167.0,8.39,13.37,47.59359,-54.27349
2023-09-16 21:04:00+00:00,157.0,7.89,159.0,8.77,13.37,47.59359,-54.27349
2023-09-16 21:14:00+00:00,159.0,7.22,156.0,7.7,12.89,47.59359,-54.27349
2023-09-16 21:24:00+00:00,156.0,7.19,156.0,8.09,12.89,47.59359,-54.27349
2023-09-16 21:34:00+00:00,151.0,6.22,147.0,7.05,12.89,47.59359,-54.27349
2023-09-16 21:44:00+00:00,165.0,7.31,165.0,8.5,12.89,47.59359,-54.27349
2023-09-16 21:54:00+00:00,165.0,7.66,161.0,8.7,12.89,47.59359,-54.27349
2023-09-16 22:04:00+00:00,160.0,7.63,163.0,8.34,12.89,47.59359,-54.27349
2023-09-16 22:14:01+00:00,165.0,8.49,162.0,9.62,12.49,47.59359,-54.27349
2023-09-16 22:24:01+00:00,167.0,7.14,176.0,9.11,12.49,47.59359,-54.27349
2023-09-16 22:34:01+00:00,165.0,6.9,166.0,7.71,12.49,47.59359,-54.27349
2023-09-16 22:44:01+00:00,166.0,6.65,167.0,7.51,12.49,47.59359,-54.27349
2023-09-16 22:54:01+00:00,167.0,7.26,174.0,8.52,12.49,47.59359,-54.27349
2023-09-16 23:04:01+00:00,164.0,9.03,162.0,10.82,12.49,47.59359,-54.27349
2023-09-16 23:14:00+00:00,163.0,8.35,163.0,9.9,12.49,47.59359,-54.27349
2023-09-16 23:24:00+00:00,160.0,7.53,156.0,8.61,12.49,47.59359,-54.27349
2023-09-16 23:34:00+00:00,156.0,7.16,157.0,7.74,12.49,47.59359,-54.27349
2023-09-16 23:44:00+00:00,161.0,8.26,159.0,9.08,12.49,47.59359,-54.27349
2023-09-16 23:54:00+00:00,161.0,8.9,161.0,9.63,12.49,47.59359,-54.27349
